Location: Clanezzo
(45.7500°N, 9.6000°E)
Time: 21:45:03
(UTC+00:00)

SPROUT - Pass Details

Date: 09 July 2022
Orbit: 588 x 598 km, 97.9° (Epoch: 16 August)

Event Time Altitude Azimuth Distance (km) Brightness Sun altitude
Exits shadow 01:34:53 11° 268° (W) 1,832 ? -15.9°
Maximum altitude 01:35:07 11° 271° (W) 1,830 ? -15.9°
Drops below altitude 10° 01:36:29 10° 291° (WNW) 1,923 ? -15.8°
Sets 01:40:12 0° 325° (NW) 2,835 ? -15.4°
